Date String (YYYY-MM-DD hh:mm:ss) UTC,Instrument flags,absolute air pressure of the measurement (hPa),sample flow rate (lpm),inlet stack bypass flow (lpm),air temperature of the measurement (°C),ambient temperature measured by the external sensor (°C),aerosol sample conditioner tube jacket temperature (°C),OPC LED temperature (°C),internal box temperature (°C),relative humidity of the measurement (%),span deviation,mass concentration of particles derived from Lorenz-Mie calculation of OPC scattering (μg/m³),mass concentration of particles derived from Lorenz-Mie calculation of OPC scattering (μg/m³),mass concentration of particles derived from Lorenz-Mie calculation of OPC scattering (μg/m³)
DateTimeUTC,F1_M11,P_M11,Q1_M11,Q2_M11,T1_M11,T2_M11,T3_M11,T4_M11,T5_M11,U1_M11,ZSPAN_M11,X0_M11,X2_M11,X1_M11
2023-12-16 12:00:00,SystemResetWarning,0833.0,5.00,000.00,019.1,018.1,000.0,027.5,020.3,10.0,0000.0,0003.40,0001.15,0000.91
2023-12-16 12:01:00,SystemResetWarning,0833.1,5.01,000.00,019.1,018.1,000.0,027.5,020.3,9.9,0000.0,0003.34,0001.13,0000.89
2023-12-16 12:02:00,SystemResetWarning,0833.2,5.00,000.00,019.1,018.0,000.0,027.5,020.3,9.9,0000.0,0002.37,0001.09,0000.87
2023-12-16 12:03:00,SystemResetWarning,0833.2,5.00,000.00,019.1,018.1,000.0,027.5,020.3,9.9,0000.0,0001.71,0001.07,0000.86
2023-12-16 12:04:00,SystemResetWarning,0833.1,5.00,000.00,019.0,018.1,000.0,027.4,020.3,10.0,0000.0,0001.67,0001.06,0000.84
2023-12-16 12:05:00,SystemResetWarning,0833.0,5.00,000.00,019.0,018.0,000.0,027.4,020.3,10.1,0000.0,0001.57,0001.01,0000.81
2023-12-16 12:06:00,SystemResetWarning,0833.3,5.00,000.00,019.0,018.0,000.0,027.4,020.3,9.9,0000.0,0001.50,0000.97,0000.78
2023-12-16 12:07:00,SystemResetWarning,0833.2,5.00,000.00,019.0,018.0,000.0,027.4,020.2,10.1,0000.0,0001.51,0000.96,0000.76
2023-12-16 12:08:00,SystemResetWarning,0832.9,5.00,000.00,019.0,018.0,000.0,027.4,020.2,10.1,0000.0,0001.51,0000.95,0000.75
2023-12-16 12:09:00,SystemResetWarning,0833.2,5.00,000.00,019.0,018.1,000.0,027.4,020.2,10.0,0000.0,0001.53,0000.97,0000.74
2023-12-16 12:10:00,SystemResetWarning,0832.8,5.00,000.00,019.0,018.0,000.0,027.4,020.2,10.0,0000.0,0001.41,0000.93,0000.72
2023-12-16 12:11:00,SystemResetWarning,0832.8,5.00,000.00,019.0,018.0,000.0,027.4,020.2,9.9,0000.0,0001.21,0000.87,0000.70
2023-12-16 12:12:00,SystemResetWarning,0833.0,5.00,000.00,019.0,018.1,000.0,027.4,020.2,10.5,0000.0,0001.10,0000.84,0000.68
2023-12-16 12:13:00,SystemResetWarning,0833.5,5.00,000.00,019.0,018.1,000.0,027.4,020.2,10.9,0000.0,0001.11,0000.83,0000.66
2023-12-16 12:14:00,SystemResetWarning,0833.0,5.00,000.00,019.0,018.1,000.0,027.4,020.2,11.3,0000.0,0001.07,0000.79,0000.63
2023-12-16 12:15:00,SystemResetWarning,0833.1,5.00,000.00,019.0,018.1,000.0,027.4,020.2,11.4,0000.0,0001.66,0000.76,0000.61
2023-12-16 12:16:00,SystemResetWarning,0833.2,5.01,000.00,019.0,018.1,000.0,027.4,020.2,11.4,0000.0,0001.69,0000.78,0000.62
2023-12-16 12:17:00,SystemResetWarning,0832.9,5.00,000.00,019.0,018.1,000.0,027.4,020.2,11.1,0000.0,0001.72,0000.80,0000.64
2023-12-16 12:18:00,SystemResetWarning,0832.8,4.99,000.00,019.0,018.1,000.0,027.4,020.2,10.5,0000.0,0001.73,0000.82,0000.67
2023-12-16 12:19:00,SystemResetWarning,0832.8,4.99,000.00,019.0,018.1,000.0,027.4,020.2,10.3,0000.0,0001.78,0000.86,0000.71
2023-12-16 12:20:00,SystemResetWarning,0832.8,5.00,000.00,019.0,018.1,000.0,027.3,020.2,10.2,0000.0,0001.78,0000.87,0000.75
2023-12-16 12:21:00,SystemResetWarning,0832.8,4.99,000.00,019.0,018.1,000.0,027.3,020.2,10.2,0000.0,0001.77,0000.87,0000.77
2023-12-16 12:22:00,SystemResetWarning,0832.8,4.99,000.00,019.0,018.1,000.0,027.3,020.3,10.2,0000.0,0001.79,0000.88,0000.76
2023-12-16 12:23:00,SystemResetWarning,0832.8,5.00,000.00,019.0,018.1,000.0,027.3,020.2,10.3,0000.0,0001.77,0000.85,0000.75
2023-12-16 12:24:00,SystemResetWarning,0832.8,4.99,000.00,019.0,018.1,000.0,027.3,020.2,10.3,0000.0,0001.72,0000.83,0000.75
2023-12-16 12:25:00,SystemResetWarning,0832.8,5.00,000.00,019.0,018.1,000.0,027.3,020.2,10.3,0000.0,0001.75,0000.83,0000.75
2023-12-16 12:26:00,SystemResetWarning,0832.8,5.01,000.00,019.0,018.1,000.0,027.3,020.2,10.5,0000.0,0001.22,0000.84,0000.75
2023-12-16 12:27:00,SystemResetWarning,0832.8,5.01,000.00,019.0,018.1,000.0,027.3,020.2,10.6,0000.0,0001.16,0000.84,0000.74
2023-12-16 12:28:00,SystemResetWarning,0832.8,5.00,000.00,019.0,018.1,000.0,027.3,020.2,10.6,0000.0,0001.26,0000.83,0000.70
2023-12-16 12:29:00,SystemResetWarning,0832.8,5.01,000.00,019.0,018.1,000.0,027.3,020.2,10.6,0000.0,0001.30,0000.81,0000.66
2023-12-16 12:30:00,SystemResetWarning,0832.8,5.00,000.00,019.0,018.1,000.0,027.3,020.2,10.6,0000.0,0001.29,0000.78,0000.62
2023-12-16 12:31:00,SystemResetWarning,0833.2,5.00,000.00,019.0,018.1,000.0,027.3,020.2,10.6,0000.0,0001.19,0000.72,0000.57
2023-12-16 12:32:00,SystemResetWarning,0833.1,4.99,000.00,019.0,018.1,000.0,027.3,020.2,10.6,0000.0,0001.18,0000.69,0000.53
2023-12-16 12:33:00,SystemResetWarning,0833.1,5.00,000.00,019.0,018.1,000.0,027.3,020.2,10.8,0000.0,0001.15,0000.67,0000.51
2023-12-16 12:34:00,SystemResetWarning,0833.3,5.00,000.00,019.0,018.1,000.0,027.3,020.3,10.6,0000.0,0001.16,0000.68,0000.51
2023-12-16 12:35:00,SystemResetWarning,0833.3,4.99,000.00,019.0,018.1,000.0,027.3,020.3,10.8,0000.0,0001.21,0000.70,0000.51
2023-12-16 12:36:00,SystemResetWarning,0833.1,4.99,000.00,019.0,018.1,000.0,027.3,020.3,11.0,0000.0,0001.22,0000.72,0000.52
2023-12-16 12:37:00,SystemResetWarning,0833.0,5.00,000.00,019.0,018.1,000.0,027.3,020.3,10.3,0000.0,0001.25,0000.75,0000.54
2023-12-16 12:38:00,SystemResetWarning,0833.3,5.00,000.00,019.0,018.1,000.0,027.3,020.3,10.2,0000.0,0001.27,0000.77,0000.57
2023-12-16 12:39:00,SystemResetWarning,0833.0,4.99,000.00,019.0,018.1,000.0,027.3,020.3,10.6,0000.0,0001.21,0000.77,0000.59
2023-12-16 12:40:00,SystemResetWarning,0833.0,5.00,000.00,019.0,018.1,000.0,027.3,020.3,10.8,0000.0,0001.29,0000.82,0000.61
2023-12-16 12:41:00,SystemResetWarning,0833.1,5.00,000.00,019.0,018.1,000.0,027.3,020.3,10.5,0000.0,0001.30,0000.84,0000.64
2023-12-16 12:42:00,SystemResetWarning,0833.0,5.00,000.00,019.0,018.1,000.0,027.3,020.3,10.5,0000.0,0001.40,0000.87,0000.66
2023-12-16 12:43:00,SystemResetWarning,0833.0,5.00,000.00,019.0,018.1,000.0,027.3,020.3,10.6,0000.0,0001.59,0000.91,0000.70
2023-12-16 12:44:00,SystemResetWarning,0833.1,4.99,000.00,019.0,018.1,000.0,027.3,020.3,11.4,0000.0,0001.62,0000.94,0000.74
2023-12-16 12:45:00,SystemResetWarning,0833.3,4.99,000.00,019.0,018.1,000.0,027.3,020.3,10.8,0000.0,0001.65,0000.97,0000.78
2023-12-16 12:46:00,SystemResetWarning,0833.1,5.00,000.00,019.1,018.1,000.0,027.3,020.3,10.6,0000.0,0001.75,0001.02,0000.82
2023-12-16 12:47:00,SystemResetWarning,0833.0,5.00,000.00,019.1,018.1,000.0,027.3,020.3,10.7,0000.0,0001.82,0001.04,0000.84
2023-12-16 12:48:00,SystemResetWarning,0833.0,5.00,000.00,019.1,018.1,000.0,027.3,020.3,10.5,0000.0,0001.87,0001.05,0000.85
2023-12-16 12:49:00,SystemResetWarning,0833.0,5.01,000.00,019.1,018.1,000.0,027.3,020.3,10.3,0000.0,0001.90,0001.05,0000.86
2023-12-16 12:50:00,SystemResetWarning,0833.2,5.00,000.00,019.1,018.2,000.0,027.3,020.3,10.5,0000.0,0002.78,0001.07,0000.86
2023-12-16 12:51:00,SystemResetWarning,0833.0,5.00,000.00,019.1,018.2,000.0,027.3,020.3,10.7,0000.0,0002.67,0001.05,0000.87
2023-12-16 12:52:00,SystemResetWarning,0833.0,5.00,000.00,019.1,018.2,000.0,027.3,020.3,10.8,0000.0,0002.67,0001.05,0000.87
2023-12-16 12:53:00,SystemResetWarning,0833.0,5.00,000.00,019.1,018.1,000.0,027.3,020.3,11.1,0000.0,0002.67,0001.07,0000.88
2023-12-16 12:54:00,SystemResetWarning,0833.1,4.99,000.00,019.1,018.1,000.0,027.3,020.3,10.9,0000.0,0002.51,0001.07,0000.87
2023-12-16 12:55:00,SystemResetWarning,0833.4,4.99,000.00,019.1,018.1,000.0,027.3,020.3,10.7,0000.0,0002.53,0001.08,0000.88
2023-12-16 12:56:00,SystemResetWarning,0833.1,5.01,000.00,019.1,018.1,000.0,027.3,020.3,10.8,0000.0,0002.58,0001.11,0000.88
2023-12-16 12:57:00,SystemResetWarning,0833.3,5.01,000.00,019.1,018.1,000.0,027.3,020.3,10.6,0000.0,0002.68,0001.11,0000.88
2023-12-16 12:58:00,SystemResetWarning,0832.9,5.00,000.00,019.1,018.1,000.0,027.3,020.3,10.7,0000.0,0002.69,0001.11,0000.89
2023-12-16 12:59:00,SystemResetWarning,0833.0,4.98,000.00,019.1,018.2,000.0,027.3,020.3,10.9,0000.0,0002.66,0001.12,0000.89
